[[{"header":{"parameterUnit":"m.s-1","parameterCategory":1,"la1":30.2991,"la2":30.254,"lo1":-89.0895,"lo2":-89.0444,"dy":0.0017,"dx":0.0017,"nx":28,"ny":28,"refTime":"2025-03-22T09:00:00:Z","depth":0,"parameterNumber":2,"parameterNumberName":"U-component_of_WINDS"},"data":[0,0,0,0,0,0,0,0,0,0,0,0,0,0,0,0,0,0,0,0,0,0,0,0,0,0,0,0,0,0,0,0,0,0,0,0,0,0,0,0,0,0,0,0,0,0,0,0,0,0,0,0,0,0,0,0,0,0,2.6664,2.6667,0,2.6952,2.6955,2.6958,2.6975,2.6972,2.6969,2.6966,2.7265,2.7276,2.7287,0,0,0,0,0,0,0,0,0,0,0,0,0,2.6133,2.6143,2.6664,2.6667,2.6671,2.6951,2.6955,2.6959,2.6976,2.6972,2.6968,2.6964,2.7262,2.7275,2.7288,0,0,0,0,0,0,0,0,0,0,0,0,0,2.6387,2.6146,2.6663,2.6713,2.672,2.695,2.6955,2.696,2.6977,2.6972,2.6967,2.6962,2.7257,2.7273,2.729,2.7491,0,0,2.734,2.7347,0,0,0,0,0,0,0,0,2.6372,2.6406,2.6702,2.671,2.6719,2.6922,2.6878,2.7138,2.6978,2.688,2.6966,2.696,2.7155,2.718,2.7245,2.7505,2.7518,2.7342,2.7352,2.7359,2.7364,0,0,0,0,0,0,0,2.6355,2.6394,2.6778,2.6706,2.6717,2.6722,2.6753,2.6927,2.7042,2.6888,2.689,2.6923,2.7159,2.7229,2.7252,2.7522,2.7341,2.7356,2.7366,2.7373,2.7961,2.7966,0,0,0,0,0,0,2.6327,2.6379,2.6769,2.6786,2.6529,2.6736,2.677,2.6862,2.704,2.7062,2.6927,2.6923,2.7203,2.7233,2.7263,2.7509,2.7359,2.7374,2.7384,2.7955,2.7962,2.7968,0,0,0,0,0,0,2.6315,2.6361,2.6757,2.6583,2.6634,2.675,2.6854,2.687,2.694,2.707,2.7091,2.6977,2.72,2.724,2.7434,2.7519,2.7382,2.7397,2.7948,2.7957,2.7965,2.8003,0,0,0,0,0,0,2.63,2.6357,2.6434,2.6585,2.6643,2.6922,2.6859,2.688,2.6968,2.6965,2.7122,2.7144,2.72,2.7409,2.745,2.754,2.741,2.7941,2.7952,2.7962,2.7994,2.8012,2.8026,0,0,0,0,0,2.6281,2.6434,2.6437,2.6484,2.6741,2.6926,2.696,2.702,2.6975,2.7054,2.7137,2.7139,2.7504,2.7428,2.7475,2.7571,2.7936,2.7949,2.7962,2.7987,2.8008,2.8026,0,0,0,0,0,0,2.6292,2.6455,2.646,2.6667,2.6782,2.6929,2.7029,2.704,2.7172,2.7165,2.7235,2.727,2.7462,2.7537,2.745,2.7775,2.7715,2.7738,2.7719,2.774,2.7755,2.7733,2.7424,0,0,0,0,0,2.6318,2.6453,2.6589,2.6758,2.6816,2.6913,2.6996,2.7032,2.7155,2.7204,2.7302,2.7423,2.7565,2.7657,2.7795,2.8006,2.804,2.8095,2.8111,2.8124,2.8142,2.8258,2.8284,2.801,2.801,2.801,0,0,2.6373,2.6479,2.6561,2.6763,2.6857,2.6996,2.6954,2.7104,2.7208,2.7228,2.7416,2.7492,2.7632,2.7834,2.7929,2.7903,2.8225,2.814,2.8149,2.8161,2.8274,2.83,2.8323,2.8019,2.8017,2.8016,0,0,2.6546,2.664,2.679,2.6885,2.7027,2.709,2.7126,2.7272,2.7322,2.7512,2.7529,2.7656,2.7899,2.7997,2.8079,2.8289,2.8295,2.8332,2.8415,2.8527,2.8549,2.8568,2.8642,2.8667,2.835,2.8351,2.8351,0,2.6597,2.6806,2.6866,2.7016,2.7104,2.7127,2.728,2.737,2.755,2.7611,2.7579,2.7884,2.798,2.8205,2.8256,2.8323,2.8366,2.8314,2.8541,2.8561,2.858,2.8651,2.8678,2.8354,2.8354,2.8353,2.8353,0,2.6862,2.7007,2.7112,2.7283,2.7384,2.7535,2.7618,2.7713,2.7741,2.7808,2.8001,2.8117,2.8278,2.8335,2.8364,2.8565,2.8544,2.8526,2.8467,2.8608,2.8676,2.8704,2.8359,2.8358,2.8357,2.8356,0,0,2.7048,2.725,2.7288,2.7365,2.7524,2.7638,2.779,2.7946,2.8025,2.815,2.8279,2.8484,2.8467,2.856,2.8601,2.87,2.8857,2.867,2.8674,2.8699,2.9084,2.9095,2.9126,2.8863,2.8869,2.8873,2.9072,0,2.7237,2.7505,2.7564,2.7796,2.793,2.7954,2.8087,2.8199,2.8266,2.8391,2.8467,2.861,2.8578,2.8634,2.8734,2.8817,2.8935,2.8804,2.8984,2.8989,2.8945,2.9161,2.9174,2.9356,2.9099,2.9103,2.9107,0,2.7492,2.762,2.7864,2.8004,2.8063,2.8181,2.8328,2.8447,2.8575,2.8617,2.8721,2.8751,2.8911,2.8845,2.9066,2.8975,2.9053,2.9105,2.9114,2.9131,2.9055,2.9183,2.9416,2.9442,2.9149,2.9146,2.9143,0,2.7601,2.7835,2.8011,2.8077,2.8245,2.8327,2.8401,2.8524,2.8614,2.8744,2.8802,2.895,2.903,2.9144,2.9213,2.9159,2.9429,2.9369,2.9468,2.9466,2.9522,2.9517,2.9768,2.9575,2.9575,2.9574,2.9574,0,2.7804,2.7952,2.8061,2.817,2.8337,2.8404,2.8568,2.8642,2.8752,2.8875,2.8907,2.9023,2.9108,2.9237,2.9293,2.9466,2.9503,2.9542,2.9554,2.9538,2.9532,2.9588,2.9576,2.9582,2.958,2.9578,2.9577,0,2.7953,2.8032,2.8225,2.8368,2.8408,2.8524,2.8647,2.8754,2.8822,2.8978,2.9019,2.9126,2.9278,2.9359,2.9551,2.9588,2.9782,2.9789,2.9738,2.9743,2.9836,2.9826,3.0131,3.0173,2.9953,2.9955,2.9957,0,2.8076,2.8191,2.8345,2.8429,2.8504,2.864,2.8731,2.8802,2.8896,2.905,2.9138,2.9292,2.9418,2.9661,2.9756,2.9903,2.9912,3.0009,2.9934,2.9913,2.9911,2.9903,2.9914,3.0021,3.0023,3.0025,3.0026,0,2.8286,2.8319,2.8449,2.8592,2.8699,2.8816,2.8932,2.8999,2.9089,2.9193,2.9348,2.9446,2.964,2.9793,2.9946,3.0024,3.0041,3.0049,3.0079,3.0063,3.0027,3.0046,2.9772,3.0042,3.004,3.0039,3.0038,3.0037,2.8425,2.8527,2.8652,2.8795,2.8888,2.8995,2.9102,2.9182,2.9312,2.9474,2.9509,2.9673,2.9798,3.0006,3.0088,3.0218,3.0198,3.0243,3.0254,3.0263,3.0265,3.0008,3.0246,3.0246,3.0246,3.0246,3.0245,0,2.8635,2.8716,2.8847,2.9006,2.9119,2.9123,2.9251,2.9345,2.9488,2.9603,2.9726,2.9904,3.0052,3.0159,3.0309,3.0392,3.0404,3.0429,3.0423,3.044,3.0275,3.0233,3.0418,3.0418,3.0418,3.0417,3.0417,3.0417,2.8758,2.893,2.8978,2.9198,2.9278,2.9437,2.951,2.9609,2.97,2.9897,3.0019,3.0087,3.0199,3.0358,3.0493,3.0521,3.0574,3.0599,3.0627,3.0471,3.0452,3.0435,3.0395,3.0611,3.0611,3.0781,3.0783,3.0784]},{"header":{"parameterUnit":"m.s-1","parameterCategory":1,"la1":30.2991,"la2":30.254,"lo1":-89.0895,"lo2":-89.0444,"dy":0.0017,"dx":0.0017,"nx":28,"ny":28,"refTime":"2025-03-22T09:00:00:Z","depth":0,"parameterNumber":3,"parameterNumberName":"V-component_of_WINDS"},"data":[0,0,0,0,0,0,0,0,0,0,0,0,0,0,0,0,0,0,0,0,0,0,0,0,0,0,0,0,0,0,0,0,0,0,0,0,0,0,0,0,0,0,0,0,0,0,0,0,0,0,0,0,0,0,0,0,0,0,0.7696,0.7698,0,0.7928,0.793,0.7933,0.7953,0.795,0.7948,0.7946,0.8187,0.8195,0.8204,0,0,0,0,0,0,0,0,0,0,0,0,0,0.7274,0.7282,0.7696,0.7698,0.7701,0.7927,0.793,0.7933,0.7953,0.795,0.7947,0.7944,0.8184,0.8194,0.8205,0,0,0,0,0,0,0,0,0,0,0,0,0,0.7477,0.7284,0.7695,0.7738,0.7745,0.7926,0.793,0.7934,0.7954,0.795,0.7947,0.7943,0.818,0.8193,0.8206,0.8362,0,0,0.8246,0.8252,0,0,0,0,0,0,0,0,0.7465,0.7492,0.7729,0.7736,0.7743,0.7907,0.787,0.8078,0.7955,0.7875,0.7946,0.7941,0.8097,0.8117,0.8169,0.8373,0.8383,0.8247,0.8255,0.8261,0.8265,0,0,0,0,0,0,0,0.7451,0.7482,0.7787,0.7733,0.7741,0.7748,0.7772,0.7909,0.8004,0.7881,0.7883,0.791,0.81,0.8156,0.8174,0.8387,0.8247,0.8258,0.8267,0.8272,0.8732,0.8736,0,0,0,0,0,0,0.7428,0.747,0.778,0.7794,0.7592,0.7758,0.7786,0.7858,0.8003,0.8021,0.7913,0.791,0.8135,0.8159,0.8183,0.8376,0.8261,0.8273,0.8281,0.8727,0.8733,0.8737,0,0,0,0,0,0,0.7419,0.7456,0.7771,0.7633,0.7674,0.7769,0.7851,0.7865,0.7921,0.8027,0.8044,0.7953,0.8133,0.8164,0.8317,0.8384,0.8279,0.8291,0.8722,0.8729,0.8735,0.8762,0,0,0,0,0,0,0.7407,0.7452,0.7512,0.7634,0.7681,0.79,0.7855,0.7872,0.7943,0.7941,0.8068,0.8086,0.8133,0.8297,0.833,0.8401,0.8301,0.8717,0.8725,0.8733,0.8755,0.8768,0.878,0,0,0,0,0,0.7392,0.751,0.7514,0.7552,0.7757,0.7904,0.7931,0.7982,0.7948,0.8009,0.8077,0.8082,0.8371,0.8313,0.835,0.8425,0.8713,0.8723,0.8732,0.875,0.8766,0.8779,0,0,0,0,0,0,0.7395,0.7527,0.7533,0.7695,0.7788,0.7907,0.7986,0.7997,0.8102,0.8096,0.8156,0.8184,0.8335,0.8395,0.8328,0.8584,0.8539,0.8556,0.8539,0.8555,0.8567,0.855,0.8312,0,0,0,0,0,0.7413,0.7521,0.7631,0.7763,0.781,0.7889,0.7955,0.7986,0.8086,0.8125,0.8205,0.8302,0.8415,0.8488,0.8598,0.8763,0.8792,0.8834,0.8846,0.8855,0.887,0.8964,0.8984,0.877,0.877,0.8769,0,0,0.7455,0.7541,0.7605,0.7766,0.7842,0.7953,0.7923,0.8041,0.8125,0.8144,0.8293,0.8354,0.8467,0.8627,0.8701,0.8682,0.8935,0.8867,0.8874,0.8885,0.8976,0.8996,0.9014,0.8776,0.8775,0.8774,0,0,0.7587,0.7662,0.7781,0.7857,0.7971,0.8024,0.8052,0.817,0.8211,0.8361,0.8378,0.8479,0.8672,0.8751,0.8817,0.8979,0.8988,0.9013,0.9077,0.9167,0.9184,0.92,0.9259,0.9279,0.9027,0.9027,0.9028,0,0.7624,0.7791,0.7841,0.7959,0.803,0.8051,0.8173,0.8245,0.839,0.8439,0.8414,0.8657,0.8734,0.8914,0.8953,0.9005,0.904,0.9,0.9177,0.9193,0.9208,0.9266,0.9288,0.903,0.903,0.9029,0.9029,0,0.7832,0.7948,0.803,0.8168,0.8249,0.8368,0.8437,0.8512,0.8536,0.8591,0.8744,0.8837,0.8966,0.9011,0.9035,0.9194,0.9179,0.9165,0.9121,0.923,0.9285,0.9308,0.9033,0.9033,0.9032,0.9031,0,0,0.7974,0.8138,0.8167,0.8231,0.8358,0.8449,0.857,0.8695,0.8759,0.8858,0.8962,0.9125,0.9113,0.9188,0.9221,0.93,0.9424,0.9277,0.9281,0.9303,0.9607,0.9617,0.9642,0.9429,0.9434,0.9437,0.9598,0,0.8122,0.8336,0.8384,0.857,0.8678,0.8699,0.8804,0.8894,0.8949,0.905,0.911,0.9225,0.92,0.9245,0.9324,0.9392,0.9486,0.9381,0.9528,0.9533,0.9501,0.967,0.9682,0.9829,0.9619,0.9623,0.9625,0,0.8324,0.8426,0.8622,0.8736,0.8783,0.8877,0.8996,0.9091,0.9194,0.9229,0.9311,0.9337,0.9464,0.9412,0.959,0.9517,0.958,0.9622,0.9629,0.9647,0.9587,0.9694,0.9877,0.9899,0.9659,0.9657,0.9654,0,0.841,0.8597,0.8738,0.8792,0.8928,0.8993,0.9053,0.9152,0.9225,0.9329,0.9377,0.9495,0.956,0.9651,0.9708,0.9664,0.9881,0.9834,0.9915,0.9913,0.9961,0.9958,1.0158,0.9998,0.9998,0.9997,0.9997,0,0.8571,0.869,0.8779,0.8866,0.9001,0.9055,0.9187,0.9247,0.9335,0.9435,0.946,0.9554,0.9622,0.9726,0.9771,0.9912,0.9941,0.9973,0.9984,0.9972,0.9968,1.0016,1.0008,1.0003,1.0002,1.0001,1.0,0,0.869,0.8754,0.891,0.9026,0.9058,0.9152,0.9251,0.9338,0.9392,0.9519,0.9551,0.9638,0.9761,0.9826,0.998,1.001,1.0169,1.0173,1.0134,1.0139,1.0217,1.0209,1.0457,1.0492,1.0306,1.0308,1.0309,0,0.879,0.8882,0.9007,0.9076,0.9137,0.9247,0.932,0.9377,0.9453,0.9577,0.9649,0.9773,0.9876,1.0071,1.0149,1.0267,1.0275,1.0354,1.0293,1.0278,1.0279,1.0273,1.0283,1.0365,1.0367,1.0368,1.0369,0,0.8961,0.8988,0.9092,0.9209,0.9296,0.9391,0.9484,0.9539,0.9611,0.9696,0.9821,0.9901,1.0057,1.0181,1.0305,1.0368,1.0382,1.0387,1.0413,1.0402,1.0376,1.0393,1.0165,1.0382,1.0381,1.038,1.0379,1.0379,0.9075,0.9158,0.9259,0.9376,0.9452,0.9538,0.9625,0.969,0.9795,0.9927,0.9954,1.0087,1.0189,1.0356,1.0423,1.0528,1.0513,1.0549,1.0559,1.0567,1.0571,1.0358,1.0551,1.0551,1.055,1.055,1.055,0,0.9248,0.9314,0.942,0.955,0.9642,0.9645,0.9748,0.9825,0.9942,1.0035,1.0135,1.028,1.0399,1.0485,1.0607,1.0676,1.0685,1.0706,1.0703,1.0717,1.0578,1.0544,1.0696,1.0696,1.0696,1.0696,1.0696,1.0696,0.9349,0.9491,0.953,0.9709,0.9775,0.9905,0.9964,1.0045,1.0119,1.0279,1.0379,1.0433,1.0524,1.0653,1.0763,1.0785,1.083,1.0851,1.0874,1.0742,1.0727,1.0712,1.0681,1.086,1.086,1.1005,1.1006,1.1007]}]]